Time,TemperatureF,DewpointF,PressureIn,WindDirection,WindDirectionDegrees,WindSpeedMPH,WindSpeedGustMPH,Humidity,HourlyPrecipIn,Conditions,Clouds,dailyrainin,SolarRadiationWatts/m^2,SoftwareType,DateUTC
2013-02-07 00:01:00,19.0,13.0,-100.00,SE,140,16.0,20.0,76,0.00,,,0.02,0.000000,,2013-02-07 07:01:00,
2013-02-07 00:32:00,19.0,13.0,-100.00,SE,141,17.0,24.0,78,0.00,,,0.02,0.000000,,2013-02-07 07:32:00,
2013-02-07 00:42:00,19.0,13.0,-100.00,SE,141,17.0,24.0,78,0.00,,,0.02,0.000000,,2013-02-07 07:42:00,
2013-02-07 00:52:00,19.0,13.0,-100.00,SE,141,17.0,24.0,78,0.00,,,0.02,0.000000,,2013-02-07 07:52:00,
2013-02-07 01:01:00,19.0,13.0,-100.00,SE,141,17.0,24.0,78,0.00,,,0.02,0.000000,,2013-02-07 08:01:00,
2013-02-07 01:32:00,19.0,14.0,-100.00,SE,141,18.0,27.0,82,0.00,,,0.02,0.000000,,2013-02-07 08:32:00,
2013-02-07 01:42:00,19.0,14.0,-100.00,SE,141,18.0,27.0,82,0.00,,,0.02,0.000000,,2013-02-07 08:42:00,
2013-02-07 01:52:00,19.0,14.0,-100.00,SE,141,18.0,27.0,82,0.00,,,0.02,0.000000,,2013-02-07 08:52:00,
2013-02-07 02:01:00,19.0,14.0,-100.00,SE,141,18.0,27.0,82,0.00,,,0.02,0.000000,,2013-02-07 09:01:00,
2013-02-07 02:32:00,19.0,13.0,-100.00,SSE,147,17.0,26.0,77,0.00,,,0.02,0.000000,,2013-02-07 09:32:00,
2013-02-07 02:42:00,19.0,13.0,-100.00,SSE,147,17.0,26.0,77,0.00,,,0.02,0.000000,,2013-02-07 09:42:00,
2013-02-07 02:52:00,19.0,13.0,-100.00,SSE,147,17.0,26.0,77,0.00,,,0.02,0.000000,,2013-02-07 09:52:00,
2013-02-07 03:01:00,19.0,13.0,-100.00,SSE,147,17.0,26.0,77,0.00,,,0.02,0.000000,,2013-02-07 10:01:00,
2013-02-07 03:32:00,19.0,12.0,-100.00,SE,143,17.0,24.0,73,0.00,,,0.02,0.000000,,2013-02-07 10:32:00,
2013-02-07 03:42:00,19.0,12.0,-100.00,SE,143,17.0,24.0,73,0.00,,,0.02,0.000000,,2013-02-07 10:42:00,
2013-02-07 03:52:00,19.0,12.0,-100.00,SE,143,17.0,24.0,73,0.00,,,0.02,0.000000,,2013-02-07 10:52:00,
2013-02-07 04:01:00,19.0,12.0,-100.00,SE,143,17.0,24.0,73,0.00,,,0.02,0.000000,,2013-02-07 11:01:00,
2013-02-07 04:32:00,19.0,10.0,-100.00,SE,141,15.0,22.0,68,0.00,,,0.02,0.000000,,2013-02-07 11:32:00,
2013-02-07 04:44:00,19.0,10.0,-100.00,SE,141,15.0,22.0,68,0.00,,,0.02,0.000000,,2013-02-07 11:44:00,
2013-02-07 04:52:00,19.0,10.0,-100.00,SE,141,15.0,22.0,68,0.00,,,0.02,0.000000,,2013-02-07 11:52:00,
2013-02-07 05:01:00,19.0,10.0,-100.00,SE,141,15.0,22.0,68,0.00,,,0.02,0.000000,,2013-02-07 12:01:00,
2013-02-07 05:33:00,19.0,11.0,-100.00,SE,127,17.0,25.0,70,0.00,,,0.02,0.000000,,2013-02-07 12:33:00,
2013-02-07 05:42:00,19.0,11.0,-100.00,SE,127,17.0,25.0,70,0.00,,,0.02,0.000000,,2013-02-07 12:42:00,
2013-02-07 05:53:00,19.0,11.0,-100.00,SE,127,17.0,25.0,70,0.00,,,0.02,0.000000,,2013-02-07 12:53:00,
2013-02-07 06:02:00,19.0,11.0,-100.00,SE,127,17.0,25.0,70,0.00,,,0.02,0.000000,,2013-02-07 13:02:00,
2013-02-07 06:32:00,20.0,11.0,-100.00,SE,131,14.0,24.0,69,0.00,,,0.02,0.000000,,2013-02-07 13:32:00,
2013-02-07 06:42:00,20.0,11.0,-100.00,SE,131,14.0,24.0,69,0.00,,,0.02,0.000000,,2013-02-07 13:42:00,
2013-02-07 06:52:00,20.0,11.0,-100.00,SE,131,14.0,24.0,69,0.00,,,0.02,0.000000,,2013-02-07 13:52:00,
2013-02-07 07:01:00,20.0,11.0,-100.00,SE,131,14.0,24.0,69,0.00,,,0.02,0.000000,,2013-02-07 14:01:00,
2013-02-07 07:32:00,19.0,10.0,-100.00,SSE,147,18.0,25.0,66,0.00,,,0.02,0.000000,,2013-02-07 14:32:00,
2013-02-07 07:42:00,19.0,10.0,-100.00,SSE,147,18.0,25.0,66,0.00,,,0.02,0.000000,,2013-02-07 14:42:00,
2013-02-07 07:52:00,19.0,10.0,-100.00,SSE,147,18.0,25.0,66,0.00,,,0.02,0.000000,,2013-02-07 14:52:00,
2013-02-07 08:01:00,19.0,10.0,-100.00,SSE,147,18.0,25.0,66,0.00,,,0.02,0.000000,,2013-02-07 15:01:00,
2013-02-07 08:32:00,18.0,10.0,-100.00,SE,133,15.0,22.0,70,0.00,,,0.02,1.000000,,2013-02-07 15:32:00,
2013-02-07 08:42:00,18.0,10.0,-100.00,SE,133,15.0,22.0,70,0.00,,,0.02,1.000000,,2013-02-07 15:42:00,
2013-02-07 08:52:00,18.0,10.0,-100.00,SE,133,15.0,22.0,70,0.00,,,0.02,1.000000,,2013-02-07 15:52:00,
2013-02-07 09:01:00,18.0,10.0,-100.00,SE,133,15.0,22.0,70,0.00,,,0.02,1.000000,,2013-02-07 16:01:00,
2013-02-07 09:32:00,19.0,10.0,-100.00,SE,139,16.0,23.0,68,0.00,,,0.02,33.000000,,2013-02-07 16:32:00,
2013-02-07 09:42:00,19.0,10.0,-100.00,SE,139,16.0,23.0,68,0.00,,,0.02,33.000000,,2013-02-07 16:42:00,
2013-02-07 09:52:00,19.0,10.0,-100.00,SE,139,16.0,23.0,68,0.00,,,0.02,33.000000,,2013-02-07 16:52:00,
2013-02-07 10:01:00,19.0,10.0,-100.00,SE,139,16.0,23.0,68,0.00,,,0.02,33.000000,,2013-02-07 17:01:00,
2013-02-07 10:32:00,20.0,10.0,-100.00,SE,131,16.0,22.0,65,0.00,,,0.02,146.000000,,2013-02-07 17:32:00,
2013-02-07 10:43:00,20.0,10.0,-100.00,SE,131,16.0,22.0,65,0.00,,,0.02,146.000000,,2013-02-07 17:43:00,
2013-02-07 10:52:00,20.0,10.0,-100.00,SE,131,16.0,22.0,65,0.00,,,0.02,146.000000,,2013-02-07 17:52:00,
2013-02-07 11:01:00,20.0,10.0,-100.00,SE,131,16.0,22.0,65,0.00,,,0.02,146.000000,,2013-02-07 18:01:00,
2013-02-07 11:32:00,22.0,11.0,-100.00,SE,132,15.0,22.0,61,0.00,,,0.02,312.000000,,2013-02-07 18:32:00,
2013-02-07 11:42:00,22.0,11.0,-100.00,SE,132,15.0,22.0,61,0.00,,,0.02,312.000000,,2013-02-07 18:42:00,
2013-02-07 11:52:00,22.0,11.0,-100.00,SE,132,15.0,22.0,61,0.00,,,0.02,312.000000,,2013-02-07 18:52:00,
2013-02-07 12:01:00,22.0,11.0,-100.00,SE,132,15.0,22.0,61,0.00,,,0.02,312.000000,,2013-02-07 19:01:00,
2013-02-07 12:32:00,23.0,10.0,-100.00,SE,136,15.0,23.0,56,0.00,,,0.01,271.000000,,2013-02-07 19:32:00,
2013-02-07 12:42:00,23.0,10.0,-100.00,SE,136,15.0,23.0,56,0.00,,,0.01,271.000000,,2013-02-07 19:42:00,
2013-02-07 12:52:00,23.0,10.0,-100.00,SE,136,15.0,23.0,56,0.00,,,0.01,271.000000,,2013-02-07 19:52:00,
2013-02-07 13:01:00,23.0,10.0,-100.00,SE,136,15.0,23.0,56,0.00,,,0.01,271.000000,,2013-02-07 20:01:00,
2013-02-07 13:32:00,25.0,10.0,-100.00,SE,125,12.0,22.0,52,0.00,,,0.01,411.000000,,2013-02-07 20:32:00,
2013-02-07 13:42:00,25.0,10.0,-100.00,SE,125,12.0,22.0,52,0.00,,,0.01,411.000000,,2013-02-07 20:42:00,
2013-02-07 13:52:00,25.0,10.0,-100.00,SE,125,12.0,22.0,52,0.00,,,0.01,411.000000,,2013-02-07 20:52:00,
2013-02-07 14:01:00,25.0,10.0,-100.00,SE,125,12.0,22.0,52,0.00,,,0.01,411.000000,,2013-02-07 21:01:00,
2013-02-07 14:32:00,26.0,11.0,-100.00,ESE,119,12.0,19.0,53,0.00,,,0.00,364.000000,,2013-02-07 21:32:00,
2013-02-07 14:42:00,26.0,11.0,-100.00,ESE,119,12.0,19.0,53,0.00,,,0.00,364.000000,,2013-02-07 21:42:00,
2013-02-07 14:52:00,26.0,11.0,-100.00,ESE,119,12.0,19.0,53,0.00,,,0.00,364.000000,,2013-02-07 21:52:00,
2013-02-07 15:01:00,26.0,11.0,-100.00,ESE,119,12.0,19.0,53,0.00,,,0.00,364.000000,,2013-02-07 22:01:00,
2013-02-07 15:32:00,27.0,12.0,-100.00,SE,131,11.0,17.0,52,0.00,,,0.00,258.000000,,2013-02-07 22:32:00,
2013-02-07 15:42:00,27.0,12.0,-100.00,SE,131,11.0,17.0,52,0.00,,,0.00,258.000000,,2013-02-07 22:42:00,
2013-02-07 15:52:00,27.0,12.0,-100.00,SE,131,11.0,17.0,52,0.00,,,0.00,258.000000,,2013-02-07 22:52:00,
2013-02-07 16:01:00,27.0,12.0,-100.00,SE,131,11.0,17.0,52,0.00,,,0.00,258.000000,,2013-02-07 23:01:00,
2013-02-07 16:32:00,27.0,12.0,-100.00,SE,129,10.0,16.0,52,0.00,,,0.00,233.000000,,2013-02-07 23:32:00,
2013-02-07 16:42:00,27.0,12.0,-100.00,SE,129,10.0,16.0,52,0.00,,,0.00,233.000000,,2013-02-07 23:42:00,
2013-02-07 16:52:00,27.0,12.0,-100.00,SE,129,10.0,16.0,52,0.00,,,0.00,233.000000,,2013-02-07 23:52:00,
2013-02-07 17:01:00,27.0,12.0,-100.00,SE,129,10.0,16.0,52,0.00,,,0.00,233.000000,,2013-02-08 00:01:00,
2013-02-07 19:32:00,23.0,11.0,-100.00,SE,127,8.0,11.0,60,-99.99,,,0.00,0.000000,,2013-02-08 02:32:00,
2013-02-07 19:42:00,23.0,11.0,-100.00,SE,127,8.0,11.0,60,-99.99,,,0.00,0.000000,,2013-02-08 02:42:00,
2013-02-07 19:52:00,23.0,11.0,-100.00,SE,127,8.0,11.0,60,-99.99,,,0.00,0.000000,,2013-02-08 02:52:00,
2013-02-07 20:01:00,23.0,11.0,-100.00,SE,127,8.0,11.0,60,-99.99,,,0.00,0.000000,,2013-02-08 03:01:00,
2013-02-07 20:32:00,24.0,13.0,-100.00,SSE,152,8.0,13.0,61,0.00,,,0.00,0.000000,,2013-02-08 03:32:00,
2013-02-07 20:42:00,24.0,13.0,-100.00,SSE,152,8.0,13.0,61,0.00,,,0.00,0.000000,,2013-02-08 03:42:00,
2013-02-07 20:52:00,24.0,13.0,-100.00,SSE,152,8.0,13.0,61,0.00,,,0.00,0.000000,,2013-02-08 03:52:00,
2013-02-07 21:01:00,24.0,13.0,-100.00,SSE,152,8.0,13.0,61,0.00,,,0.00,0.000000,,2013-02-08 04:01:00,
2013-02-07 21:32:00,23.0,12.0,-100.00,SSE,160,8.0,12.0,63,0.00,,,0.00,0.000000,,2013-02-08 04:32:00,
2013-02-07 21:42:00,23.0,12.0,-100.00,SSE,160,8.0,12.0,63,0.00,,,0.00,0.000000,,2013-02-08 04:42:00,
2013-02-07 21:52:00,23.0,12.0,-100.00,SSE,160,8.0,12.0,63,0.00,,,0.00,0.000000,,2013-02-08 04:52:00,
2013-02-07 22:01:00,23.0,12.0,-100.00,SSE,160,8.0,12.0,63,0.00,,,0.00,0.000000,,2013-02-08 05:01:00,
2013-02-07 22:32:00,22.0,13.0,-100.00,SSE,167,7.0,11.0,67,0.00,,,0.00,0.000000,,2013-02-08 05:32:00,
2013-02-07 22:42:00,22.0,13.0,-100.00,SSE,167,7.0,11.0,67,0.00,,,0.00,0.000000,,2013-02-08 05:42:00,
2013-02-07 22:52:00,22.0,13.0,-100.00,SSE,167,7.0,11.0,67,0.00,,,0.00,0.000000,,2013-02-08 05:52:00,
2013-02-07 23:01:00,22.0,13.0,-100.00,SSE,167,7.0,11.0,67,0.00,,,0.00,0.000000,,2013-02-08 06:01:00,
2013-02-07 23:32:00,22.0,12.0,-100.00,South,178,4.0,7.0,66,0.00,,,0.00,0.000000,,2013-02-08 06:32:00,
2013-02-07 23:42:00,22.0,12.0,-100.00,South,178,4.0,7.0,66,0.00,,,0.00,0.000000,,2013-02-08 06:42:00,
2013-02-07 23:52:00,22.0,12.0,-100.00,South,178,4.0,7.0,66,0.00,,,0.00,0.000000,,2013-02-08 06:52:00,